| time (UTC) | temp F | wind direction | speed MPH | gust MPH | rain 1hr in | rain 24hr in | rain mn in | humidity % | barometer mb |
| 20260509171506 | 55 | 55 | 4.0 | 17.0 | 0.00 | 0.00 | 0.00 | 45 | 1014.9 |
| 20260509170003 | 56 | 132 | 6.0 | 11.0 | 0.00 | 0.00 | 0.00 | 47 | 1014.9 |
| 20260509164502 | 55 | 296 | 6.0 | 18.0 | 0.00 | 0.00 | 0.00 | 47 | 1014.8 |
| 20260509163110 | 55 | 174 | 6.0 | 12.0 | 0.00 | 0.00 | 0.00 | 49 | 1014.6 |
| 20260509161556 | 55 | 142 | 6.0 | 13.0 | 0.00 | 0.00 | 0.00 | 51 | 1014.7 |
| 20260509160051 | 55 | 170 | 7.0 | 15.0 | 0.00 | 0.00 | 0.00 | 53 | 1014.4 |
| 20260509154548 | 54 | 232 | 4.0 | 16.0 | 0.00 | 0.00 | 0.00 | 56 | 1014.2 |
| 20260509153042 | 54 | 163 | 2.0 | 10.0 | 0.00 | 0.00 | 0.00 | 59 | 1014.0 |
| 20260509151539 | 54 | 223 | 7.0 | 15.0 | 0.00 | 0.00 | 0.00 | 60 | 1013.9 |
| 20260509150036 | 54 | 169 | 8.0 | 18.0 | 0.00 | 0.00 | 0.00 | 60 | 1013.5 |
| 20260509144537 | 54 | 182 | 5.0 | 13.0 | 0.00 | 0.00 | 0.00 | 59 | 1013.4 |
| 20260509143030 | 54 | 177 | 9.0 | 15.0 | 0.00 | 0.00 | 0.00 | 62 | 1013.2 |
| 20260509141537 | 53 | 225 | 5.0 | 9.0 | 0.00 | 0.00 | 0.00 | 63 | 1013.1 |
| 20260509140022 | 53 | 206 | 6.0 | 15.0 | 0.00 | 0.00 | 0.00 | 64 | 1013.0 |
| 20260509134518 | 52 | 163 | 6.0 | 17.0 | 0.00 | 0.00 | 0.00 | 66 | 1012.8 |
| 20260509133012 | 52 | 172 | 3.0 | 19.0 | 0.00 | 0.00 | 0.00 | 68 | 1012.6 |
| 20260509131510 | 51 | 205 | 5.0 | 14.0 | 0.00 | 0.00 | 0.00 | 70 | 1012.5 |
| 20260509130005 | 51 | 168 | 3.0 | 7.0 | 0.00 | 0.00 | 0.00 | 74 | 1012.4 |
| 20260509124603 | 49 | 148 | 2.0 | 8.0 | 0.00 | 0.00 | 0.00 | 80 | 1012.5 |
| 20260509123058 | 47 | 185 | 4.0 | 8.0 | 0.00 | 0.00 | 0.00 | 82 | 1012.5 |
| 20260509121549 | 45 | 173 | 1.0 | 9.0 | 0.00 | 0.00 | 0.00 | 85 | 1012.5 |
| 20260509120043 | 43 | 211 | 5.0 | 8.0 | 0.00 | 0.00 | 0.00 | 87 | 1012.6 |
| 20260509114541 | 42 | 223 | 5.0 | 11.0 | 0.00 | 0.00 | 0.00 | 88 | 1012.4 |
| 20260509113038 | 42 | 272 | 1.0 | 5.0 | 0.00 | 0.00 | 0.00 | 90 | 1012.0 |
| 20260509111541 | 40 | 212 | 2.0 | 5.0 | 0.00 | 0.00 | 0.00 | 92 | 1011.9 |
| 20260509110024 | 40 | 302 | 1.0 | 3.0 | 0.00 | 0.00 | 0.00 | 93 | 1011.7 |
| 20260509104527 | 38 | 11 | 0.0 | 0.0 | 0.00 | 0.00 | 0.00 | 93 | 1011.5 |
| 20260509103016 | 38 | 11 | 0.0 | 0.0 | 0.00 | 0.00 | 0.00 | 93 | 1011.1 |
| 20260509101514 | 38 | 11 | 0.0 | 0.0 | 0.00 | 0.00 | 0.00 | 93 | 1010.9 |
| 20260509100007 | 37 | 11 | 0.0 | 0.0 | 0.00 | 0.00 | 0.00 | 93 | 1010.5 |
| 20260509094504 | 37 | 11 | 0.0 | 0.0 | 0.00 | 0.00 | 0.00 | 93 | 1010.3 |
| 20260509093005 | 36 | 11 | 0.0 | 0.0 | 0.00 | 0.00 | 0.00 | 93 | 1009.9 |
| 20260509091608 | 36 | 11 | 0.0 | 0.0 | 0.00 | 0.00 | 0.00 | 92 | 1009.8 |
| 20260509090057 | 36 | 11 | 0.0 | 0.0 | 0.00 | 0.00 | 0.00 | 92 | 1009.6 |
| 20260509084553 | 37 | 11 | 0.0 | 0.0 | 0.00 | 0.00 | 0.00 | 92 | 1009.5 |
| 20260509083050 | 37 | 11 | 0.0 | 0.0 | 0.00 | 0.00 | 0.00 | 92 | 1009.3 |
| 20260509081557 | 36 | 11 | 0.0 | 0.0 | 0.00 | 0.00 | 0.00 | 92 | 1009.2 |
| 20260509080049 | 36 | 11 | 0.0 | 0.0 | 0.00 | 0.00 | 0.00 | 92 | 1008.9 |
| 20260509074543 | 36 | 11 | 0.0 | 0.0 | 0.00 | 0.00 | 0.00 | 92 | 1008.7 |
| 20260509073043 | 36 | 11 | 0.0 | 0.0 | 0.00 | 0.00 | 0.00 | 92 | 1008.5 |
| 20260509071531 | 36 | 11 | 0.0 | 0.0 | 0.00 | 0.00 | 0.00 | 92 | 1008.2 |
| 20260509070029 | 36 | 11 | 0.0 | 0.0 | 0.00 | 0.00 | 0.00 | 92 | 1008.1 |
| 20260509064530 | 36 | 11 | 0.0 | 0.0 | 0.00 | 0.00 | 0.00 | 92 | 1007.8 |
| 20260509063122 | 36 | 11 | 0.0 | 0.0 | 0.00 | 0.00 | 0.00 | 92 | 1007.6 |
| 20260509061534 | 35 | 11 | 0.0 | 0.0 | 0.00 | 0.00 | 0.00 | 92 | 1007.6 |
| 20260509060018 | 35 | 11 | 0.0 | 0.0 | 0.00 | 0.00 | 0.00 | 91 | 1007.3 |
| 20260509054513 | 34 | 11 | 0.0 | 0.0 | 0.00 | 0.00 | 0.00 | 91 | 1007.1 |
| 20260509053021 | 34 | 11 | 0.0 | 0.0 | 0.00 | 0.00 | 0.00 | 91 | 1006.9 |
| 20260509051505 | 34 | 11 | 0.0 | 0.0 | 0.00 | 0.00 | 0.00 | 91 | 1006.7 |
| 20260509050005 | 34 | 11 | 0.0 | 0.0 | 0.00 | 0.00 | 0.00 | 90 | 1006.6 |
| 20260509044600 | 34 | 11 | 0.0 | 0.0 | 0.00 | 0.00 | 0.00 | 90 | 1006.4 |
| 20260509043100 | 34 | 11 | 0.0 | 0.0 | 0.00 | 0.00 | 0.00 | 90 | 1006.1 |
| 20260509041551 | 35 | 11 | 0.0 | 0.0 | 0.00 | 0.00 | 0.00 | 90 | 1005.9 |
| 20260509040048 | 36 | 11 | 0.0 | 0.0 | 0.00 | 0.00 | 0.00 | 90 | 1005.7 |
| 20260509034545 | 36 | 11 | 0.0 | 0.0 | 0.00 | 0.01 | 0.00 | 90 | 1005.4 |
| 20260509033039 | 37 | 11 | 0.0 | 0.0 | 0.00 | 0.01 | 0.00 | 90 | 1005.0 |
| 20260509031534 | 38 | 11 | 0.0 | 0.0 | 0.00 | 0.01 | 0.00 | 89 | 1004.8 |
| 20260509030030 | 38 | 11 | 0.0 | 0.0 | 0.00 | 0.01 | 0.00 | 90 | 1004.6 |
| 20260509024527 | 39 | 11 | 0.0 | 0.0 | 0.00 | 0.01 | 0.01 | 89 | 1004.5 |
| 20260509023024 | 40 | 11 | 0.0 | 0.0 | 0.00 | 0.01 | 0.01 | 89 | 1004.5 |
| 20260509021523 | 40 | 11 | 0.0 | 0.0 | 0.00 | 0.01 | 0.01 | 89 | 1004.4 |
| 20260509020021 | 41 | 11 | 0.0 | 0.0 | 0.00 | 0.01 | 0.01 | 89 | 1004.2 |
| 20260509014520 | 41 | 11 | 0.0 | 0.0 | 0.00 | 0.01 | 0.01 | 89 | 1004.1 |
| 20260509013015 | 42 | 11 | 0.0 | 0.0 | 0.00 | 0.01 | 0.01 | 88 | 1004.1 |
| 20260509011512 | 42 | 11 | 0.0 | 0.0 | 0.00 | 0.01 | 0.01 | 89 | 1003.8 |
| 20260509010010 | 42 | 11 | 0.0 | 0.0 | 0.00 | 0.01 | 0.01 | 88 | 1003.6 |
| 20260509004518 | 42 | 11 | 0.0 | 0.0 | 0.00 | 0.02 | 0.01 | 88 | 1003.5 |
| 20260509003007 | 42 | 11 | 0.0 | 0.0 | 0.00 | 0.02 | 0.01 | 88 | 1003.8 |
| 20260509001502 | 43 | 11 | 0.0 | 0.0 | 0.00 | 0.02 | 0.01 | 87 | 1003.7 |
| 20260509000106 | 43 | 11 | 0.0 | 0.0 | 0.00 | 0.02 | 0.01 | 86 | 1003.6 |
| 20260508234558 | 43 | 11 | 0.0 | 2.0 | 0.00 | 0.03 | 0.01 | 86 | 1003.3 |
| 20260508233105 | 43 | 11 | 0.0 | 1.0 | 0.00 | 0.03 | 0.01 | 85 | 1003.2 |
| 20260508231631 | 43 | 11 | 0.0 | 3.0 | 0.00 | 0.03 | 0.01 | 85 | 1002.9 |
| 20260508230059 | 43 | 53 | 4.0 | 6.0 | 0.00 | 0.03 | 0.01 | 85 | 1002.8 |
| 20260508224549 | 44 | 202 | 0.0 | 3.0 | 0.00 | 0.03 | 0.01 | 85 | 1002.7 |
| 20260508223045 | 44 | 205 | 1.0 | 5.0 | 0.00 | 0.03 | 0.01 | 85 | 1002.4 |
| 20260508221539 | 44 | 174 | 1.0 | 5.0 | 0.00 | 0.03 | 0.01 | 85 | 1002.2 |
| 20260508220137 | 44 | 218 | 5.0 | 9.0 | 0.00 | 0.03 | 0.01 | 85 | 1001.9 |
| 20260508214540 | 45 | 197 | 5.0 | 15.0 | 0.00 | 0.03 | 0.01 | 82 | 1001.6 |
| 20260508213031 | 50 | 291 | 6.0 | 17.0 | 0.00 | 0.03 | 0.01 | 73 | 1000.9 |
| 20260508211531 | 53 | 228 | 6.0 | 10.0 | 0.00 | 0.03 | 0.01 | 60 | 1000.2 |
| 20260508210027 | 54 | 230 | 4.0 | 8.0 | 0.00 | 0.03 | 0.01 | 57 | 999.8 |
| 20260508204526 | 55 | 249 | 3.0 | 8.0 | 0.00 | 0.04 | 0.01 | 56 | 999.7 |
| 20260508203026 | 55 | 195 | 1.0 | 7.0 | 0.00 | 0.04 | 0.01 | 57 | 999.5 |
| 20260508201520 | 55 | 215 | 3.0 | 10.0 | 0.00 | 0.04 | 0.01 | 57 | 999.4 |
| 20260508200018 | 56 | 51 | 4.0 | 7.0 | 0.00 | 0.04 | 0.01 | 58 | 999.2 |
| 20260508194516 | 55 | 59 | 3.0 | 13.0 | 0.00 | 0.20 | 0.01 | 58 | 999.0 |
| 20260508193016 | 55 | 62 | 2.0 | 12.0 | 0.00 | 0.20 | 0.01 | 58 | 999.1 |
| 20260508191529 | 57 | 78 | 3.0 | 10.0 | 0.00 | 0.20 | 0.01 | 58 | 999.0 |
| 20260508190010 | 57 | 60 | 6.0 | 10.0 | 0.00 | 0.20 | 0.01 | 59 | 998.8 |
| 20260508184508 | 57 | 85 | 4.0 | 11.0 | 0.00 | 0.49 | 0.01 | 59 | 998.6 |
| 20260508183005 | 58 | 176 | 4.0 | 12.0 | 0.00 | 0.49 | 0.01 | 62 | 998.8 |
| 20260508181504 | 58 | 154 | 3.0 | 10.0 | 0.00 | 0.49 | 0.01 | 62 | 999.0 |
| 20260508180004 | 57 | 63 | 2.0 | 8.0 | 0.00 | 0.49 | 0.01 | 62 | 998.8 |
| 20260508174615 | 56 | 208 | 8.0 | 17.0 | 0.00 | 0.87 | 0.01 | 63 | 998.8 |
| 20260508173058 | 58 | 225 | 10.0 | 15.0 | 0.00 | 0.87 | 0.01 | 62 | 998.9 |